,,PressureMeas_1m,,PRMeasQMR101_1,,RHStat155_1m_1,,SRMeasQMS101R_1m,,TAStat155_1m_1,,GenWind_1,,GenWind_1,
2019-05-13, 07:00:06,VALID,917.451,VALID,0.0,VALID,96.824,VALID,39.607,VALID,19.675,INVALID,360.0,VALID,0.0,
2019-05-13, 07:01:06,VALID,917.462,VALID,0.0,VALID,96.49,VALID,41.092,VALID,19.711,INVALID,360.0,VALID,0.0,
2019-05-13, 07:02:06,VALID,917.486,VALID,0.0,VALID,96.238,VALID,42.625,VALID,19.759,INVALID,360.0,VALID,0.0,
2019-05-13, 07:03:06,VALID,917.493,VALID,0.0,VALID,95.749,VALID,44.326,VALID,19.854,INVALID,360.0,VALID,0.0,
2019-05-13, 07:04:06,VALID,917.519,VALID,0.0,VALID,95.133,VALID,46.308,VALID,19.946,INVALID,360.0,VALID,0.0,
2019-05-13, 07:05:06,VALID,917.516,VALID,0.0,VALID,94.719,VALID,48.686,VALID,20.012,INVALID,360.0,VALID,0.0,
2019-05-13, 07:06:06,VALID,917.529,VALID,0.0,VALID,94.404,VALID,51.336,VALID,20.055,INVALID,360.0,VALID,0.0,
2019-05-13, 07:07:06,VALID,917.558,VALID,0.0,VALID,94.133,VALID,54.134,VALID,20.097,INVALID,360.0,VALID,0.0,
2019-05-13, 07:08:06,VALID,917.562,VALID,0.0,VALID,94.067,VALID,57.352,VALID,20.133,INVALID,360.0,VALID,0.0,
2019-05-13, 07:09:06,VALID,917.585,VALID,0.0,VALID,93.895,VALID,61.063,VALID,20.171,INVALID,360.0,VALID,0.0,
2019-05-13, 07:10:06,VALID,917.61,VALID,0.0,VALID,93.775,VALID,64.645,VALID,20.21,INVALID,360.0,VALID,0.0,
2019-05-13, 07:11:06,VALID,917.643,VALID,0.0,VALID,93.686,VALID,67.801,VALID,20.24,INVALID,360.0,VALID,0.0,
2019-05-13, 07:12:06,VALID,917.664,VALID,0.0,VALID,93.702,VALID,69.394,VALID,20.267,INVALID,360.0,VALID,0.0,
2019-05-13, 07:13:06,VALID,917.692,VALID,0.0,VALID,93.663,VALID,65.1,VALID,20.282,INVALID,360.0,VALID,0.0,
2019-05-13, 07:14:06,VALID,917.698,VALID,0.0,VALID,93.58,VALID,58.621,VALID,20.298,INVALID,360.0,VALID,0.0,
2019-05-13, 07:15:06,VALID,917.726,VALID,0.0,VALID,93.482,VALID,56.595,VALID,20.291,INVALID,360.0,VALID,0.0,
2019-05-13, 07:16:06,VALID,917.734,VALID,0.0,VALID,93.775,VALID,57.141,VALID,20.271,INVALID,360.0,VALID,0.0,
2019-05-13, 07:17:06,VALID,917.749,VALID,0.0,VALID,93.702,VALID,59.075,VALID,20.262,INVALID,360.0,VALID,0.0,
2019-05-13, 07:18:06,VALID,917.77,VALID,0.0,VALID,93.933,VALID,63.572,VALID,20.275,INVALID,360.0,VALID,0.0,
2019-05-13, 07:19:06,VALID,917.796,VALID,0.0,VALID,94.0,VALID,69.19,VALID,20.267,INVALID,360.0,VALID,0.0,
2019-05-13, 07:20:06,VALID,917.819,VALID,0.0,VALID,94.061,VALID,73.587,VALID,20.239,INVALID,360.0,VALID,0.0,
2019-05-13, 07:21:06,VALID,917.836,VALID,0.0,VALID,94.44,VALID,80.248,VALID,20.239,INVALID,360.0,VALID,0.0,
2019-05-13, 07:22:06,VALID,917.845,VALID,0.0,VALID,94.542,VALID,86.3,VALID,20.262,INVALID,360.0,VALID,0.0,
2019-05-13, 07:23:06,VALID,917.842,VALID,0.0,VALID,94.48,VALID,90.115,VALID,20.275,INVALID,360.0,VALID,0.0,
2019-05-13, 07:24:06,VALID,917.857,VALID,0.0,VALID,94.528,VALID,92.949,VALID,20.287,INVALID,360.0,VALID,0.0,
2019-05-13, 07:25:06,VALID,917.869,VALID,0.0,VALID,94.567,VALID,95.415,VALID,20.311,INVALID,360.0,VALID,0.0,
2019-05-13, 07:26:06,VALID,917.874,VALID,0.0,VALID,94.481,VALID,97.581,VALID,20.356,INVALID,360.0,VALID,0.0,
2019-05-13, 07:27:06,VALID,917.901,VALID,0.0,VALID,94.397,VALID,98.413,VALID,20.388,INVALID,360.0,VALID,0.0,
2019-05-13, 07:28:06,VALID,917.931,VALID,0.0,VALID,94.333,VALID,98.934,VALID,20.448,INVALID,360.0,VALID,0.0,
2019-05-13, 07:29:06,VALID,917.946,VALID,0.0,VALID,93.981,VALID,98.297,VALID,20.511,INVALID,360.0,VALID,0.0,
2019-05-13, 07:30:06,VALID,917.959,VALID,0.0,VALID,93.605,VALID,97.334,VALID,20.569,INVALID,360.0,VALID,0.0,
2019-05-13, 07:31:06,VALID,917.997,VALID,0.0,VALID,93.211,VALID,99.49,VALID,20.582,INVALID,360.0,VALID,0.0,
2019-05-13, 07:32:06,VALID,918.008,VALID,0.0,VALID,93.235,VALID,101.994,VALID,20.61,INVALID,360.0,VALID,0.0,
2019-05-13, 07:33:06,VALID,918.03,VALID,0.0,VALID,93.19,VALID,102.259,VALID,20.621,INVALID,360.0,VALID,0.0,
2019-05-13, 07:34:06,VALID,918.041,VALID,0.0,VALID,93.178,VALID,101.21,VALID,20.62,INVALID,360.0,VALID,0.0,
2019-05-13, 07:35:06,VALID,918.037,VALID,0.0,VALID,92.918,VALID,102.866,VALID,20.61,INVALID,360.0,VALID,0.0,
2019-05-13, 07:36:06,VALID,918.027,VALID,0.0,VALID,93.341,VALID,106.208,VALID,20.626,INVALID,360.0,VALID,0.0,
2019-05-13, 07:37:06,VALID,918.028,VALID,0.0,VALID,93.444,VALID,109.622,VALID,20.678,INVALID,360.0,VALID,0.0,
2019-05-13, 07:38:06,VALID,918.011,VALID,0.0,VALID,93.39,VALID,112.39,VALID,20.753,INVALID,360.0,VALID,0.0,
2019-05-13, 07:39:06,VALID,918.031,VALID,0.0,VALID,93.216,VALID,116.135,VALID,20.803,INVALID,360.0,VALID,0.0,
2019-05-13, 07:40:06,VALID,918.031,VALID,0.0,VALID,92.612,VALID,119.912,VALID,20.813,INVALID,360.0,VALID,0.0,
2019-05-13, 07:41:06,VALID,918.045,VALID,0.0,VALID,92.572,VALID,123.704,VALID,20.869,INVALID,360.0,VALID,0.0,
2019-05-13, 07:42:06,VALID,918.062,VALID,0.0,VALID,92.519,VALID,126.418,VALID,20.925,INVALID,360.0,VALID,0.0,
2019-05-13, 07:43:06,VALID,918.083,VALID,0.0,VALID,92.481,VALID,129.417,VALID,20.961,INVALID,360.0,VALID,0.0,
2019-05-13, 07:44:06,VALID,918.109,VALID,0.0,VALID,92.331,VALID,135.053,VALID,21.003,INVALID,360.0,VALID,0.0,
2019-05-13, 07:45:06,VALID,918.141,VALID,0.0,VALID,92.378,VALID,142.185,VALID,21.077,INVALID,360.0,VALID,0.0,
2019-05-13, 07:46:06,VALID,918.161,VALID,0.0,VALID,91.567,VALID,149.841,VALID,21.152,INVALID,360.0,VALID,0.0,
2019-05-13, 07:47:06,VALID,918.169,VALID,0.0,VALID,91.584,VALID,161.075,VALID,21.252,INVALID,360.0,VALID,0.0,
2019-05-13, 07:48:06,VALID,918.197,VALID,0.0,VALID,91.014,VALID,173.202,VALID,21.362,INVALID,360.0,VALID,0.0,
2019-05-13, 07:49:06,VALID,918.238,VALID,0.0,VALID,90.622,VALID,181.272,VALID,21.549,INVALID,360.0,VALID,0.0,
2019-05-13, 07:50:06,VALID,918.229,VALID,0.0,VALID,88.891,VALID,187.95,VALID,21.663,INVALID,360.0,VALID,0.0,
2019-05-13, 07:51:06,VALID,918.288,VALID,0.0,VALID,88.735,VALID,187.117,VALID,21.679,INVALID,360.0,VALID,0.0,
2019-05-13, 07:52:06,VALID,918.307,VALID,0.0,VALID,89.198,VALID,187.764,VALID,21.786,INVALID,360.0,VALID,0.0,
2019-05-13, 07:53:06,VALID,918.329,VALID,0.0,VALID,88.791,VALID,191.746,VALID,21.945,INVALID,360.0,VALID,0.0,
2019-05-13, 07:54:06,VALID,918.357,VALID,0.0,VALID,88.691,VALID,198.468,VALID,22.107,INVALID,360.0,VALID,0.0,
2019-05-13, 07:55:06,VALID,918.388,VALID,0.0,VALID,86.665,VALID,206.187,VALID,22.238,INVALID,360.0,VALID,0.0,
2019-05-13, 07:56:06,VALID,918.405,VALID,0.0,VALID,85.787,VALID,206.406,VALID,22.284,INVALID,360.0,VALID,0.0,
2019-05-13, 07:57:06,VALID,918.444,VALID,0.0,VALID,85.145,VALID,208.22,VALID,22.316,INVALID,360.0,VALID,0.0,
2019-05-13, 07:58:06,VALID,918.458,VALID,0.0,VALID,86.024,VALID,224.244,VALID,22.288,INVALID,360.0,VALID,0.0,
2019-05-13, 07:59:06,VALID,918.459,VALID,0.0,VALID,85.893,VALID,249.791,VALID,22.399,INVALID,360.0,VALID,0.0,
2019-05-13, 08:00:06,VALID,918.471,VALID,0.0,VALID,84.837,VALID,252.416,VALID,22.567,INVALID,360.0,VALID,0.0,
2019-05-13, 08:01:06,VALID,918.479,VALID,0.0,VALID,83.533,VALID,272.592,VALID,22.737,INVALID,360.0,VALID,0.0,
2019-05-13, 08:02:06,VALID,918.487,VALID,0.0,VALID,83.168,VALID,284.98,VALID,22.75,INVALID,360.0,VALID,0.0,
2019-05-13, 08:03:06,VALID,918.497,VALID,0.0,VALID,84.035,VALID,280.658,VALID,22.616,INVALID,360.0,VALID,0.0,
2019-05-13, 08:04:06,VALID,918.486,VALID,0.0,VALID,85.497,VALID,293.08,VALID,22.533,INVALID,360.0,VALID,0.0,
2019-05-13, 08:05:06,VALID,918.485,VALID,0.0,VALID,86.398,VALID,305.082,VALID,22.685,INVALID,360.0,VALID,0.0,
2019-05-13, 08:06:06,VALID,918.482,VALID,0.0,VALID,85.451,VALID,307.972,VALID,22.813,INVALID,360.0,VALID,0.0,
2019-05-13, 08:07:06,VALID,918.481,VALID,0.0,VALID,84.194,VALID,315.285,VALID,22.888,INVALID,360.0,VALID,0.0,
2019-05-13, 08:08:06,VALID,918.444,VALID,0.0,VALID,82.672,VALID,328.384,VALID,22.878,INVALID,360.0,VALID,0.0,
2019-05-13, 08:09:06,VALID,918.41,VALID,0.0,VALID,84.215,VALID,332.091,VALID,23.001,INVALID,360.0,VALID,0.0,
2019-05-13, 08:10:06,VALID,918.367,VALID,0.0,VALID,82.783,VALID,325.946,VALID,23.039,INVALID,360.0,VALID,0.0,
2019-05-13, 08:11:06,VALID,918.353,VALID,0.0,VALID,82.82,VALID,328.883,VALID,23.17,INVALID,360.0,VALID,0.0,
2019-05-13, 08:12:06,VALID,918.312,VALID,0.0,VALID,83.446,VALID,335.704,VALID,23.2,INVALID,360.0,VALID,0.0,
2019-05-13, 08:13:06,VALID,918.322,VALID,0.0,VALID,83.659,VALID,354.995,VALID,23.145,INVALID,360.0,VALID,0.0,
2019-05-13, 08:14:06,VALID,918.321,VALID,0.0,VALID,83.55,VALID,362.821,VALID,23.11,INVALID,360.0,VALID,0.0,
2019-05-13, 08:15:06,VALID,918.334,VALID,0.0,VALID,82.466,VALID,360.076,VALID,23.095,INVALID,360.0,VALID,0.0,
2019-05-13, 08:16:06,VALID,918.369,VALID,0.0,VALID,82.093,VALID,361.424,VALID,23.017,INVALID,360.0,VALID,0.0,
2019-05-13, 08:17:06,VALID,918.36,VALID,0.0,VALID,81.165,VALID,361.019,VALID,22.852,INVALID,360.0,VALID,0.0,
2019-05-13, 08:18:06,VALID,918.373,VALID,0.0,VALID,82.415,VALID,352.02,VALID,22.693,INVALID,360.0,VALID,0.0,
2019-05-13, 08:19:06,VALID,918.367,VALID,0.0,VALID,83.016,VALID,339.51,VALID,22.816,INVALID,360.0,VALID,0.0,
2019-05-13, 08:20:06,VALID,918.376,VALID,0.0,VALID,82.228,VALID,317.86,VALID,22.927,INVALID,360.0,VALID,0.0,
2019-05-13, 08:21:06,VALID,918.364,VALID,0.0,VALID,82.866,VALID,295.0,VALID,22.953,INVALID,360.0,VALID,0.0,
2019-05-13, 08:22:06,VALID,918.385,VALID,0.0,VALID,83.514,VALID,290.618,VALID,23.128,INVALID,360.0,VALID,0.0,
2019-05-13, 08:23:06,VALID,918.402,VALID,0.0,VALID,83.038,VALID,311.216,VALID,23.452,INVALID,360.0,VALID,0.0,
2019-05-13, 08:24:06,VALID,918.423,VALID,0.0,VALID,81.637,VALID,349.387,VALID,23.775,INVALID,360.0,VALID,0.0,
2019-05-13, 08:25:06,VALID,918.424,VALID,0.0,VALID,80.692,VALID,350.657,VALID,24.087,INVALID,360.0,VALID,0.0,
2019-05-13, 08:26:06,VALID,918.453,VALID,0.0,VALID,78.229,VALID,320.89,VALID,24.064,INVALID,360.0,VALID,0.0,
2019-05-13, 08:27:06,VALID,918.455,VALID,0.0,VALID,78.357,VALID,345.35,VALID,24.01,INVALID,360.0,VALID,0.0,
2019-05-13, 08:28:06,VALID,918.464,VALID,0.0,VALID,79.241,VALID,352.094,VALID,24.075,INVALID,360.0,VALID,0.0,
2019-05-13, 08:29:06,VALID,918.475,VALID,0.0,VALID,79.436,VALID,374.161,VALID,24.048,INVALID,360.0,VALID,0.0,
2019-05-13, 08:30:06,VALID,918.458,VALID,0.0,VALID,81.058,VALID,362.678,VALID,23.917,INVALID,360.0,VALID,0.0,
2019-05-13, 08:31:06,VALID,918.465,VALID,0.0,VALID,82.016,VALID,371.346,VALID,23.864,INVALID,360.0,VALID,0.0,
2019-05-13, 08:32:06,VALID,918.473,VALID,0.0,VALID,83.235,VALID,390.326,VALID,23.861,INVALID,360.0,VALID,0.0,
2019-05-13, 08:33:06,VALID,918.499,VALID,0.0,VALID,81.246,VALID,376.16,VALID,23.842,INVALID,360.0,VALID,0.0,
2019-05-13, 08:34:06,VALID,918.494,VALID,0.0,VALID,79.546,VALID,376.372,VALID,23.667,INVALID,360.0,VALID,0.0,
2019-05-13, 08:35:06,VALID,918.514,VALID,0.0,VALID,82.629,VALID,369.207,VALID,23.693,INVALID,360.0,VALID,0.0,
2019-05-13, 08:36:06,VALID,918.521,VALID,0.0,VALID,81.802,VALID,352.206,VALID,23.898,INVALID,360.0,VALID,0.0,
2019-05-13, 08:37:06,VALID,918.523,VALID,0.0,VALID,80.286,VALID,402.577,VALID,24.047,INVALID,360.0,VALID,0.0,
2019-05-13, 08:38:06,VALID,918.532,VALID,0.0,VALID,80.212,VALID,413.785,VALID,23.907,INVALID,360.0,VALID,0.0,
2019-05-13, 08:39:06,VALID,918.551,VALID,0.0,VALID,79.787,VALID,413.569,VALID,23.939,INVALID,360.0,VALID,0.0,
2019-05-13, 08:40:06,VALID,918.551,VALID,0.0,VALID,79.71,VALID,438.387,VALID,24.178,INVALID,360.0,VALID,0.0,
2019-05-13, 08:41:06,VALID,918.582,VALID,0.0,VALID,79.258,VALID,454.984,VALID,24.255,INVALID,360.0,VALID,0.0,
2019-05-13, 08:42:06,VALID,918.594,VALID,0.0,VALID,79.454,VALID,462.983,VALID,24.123,INVALID,360.0,VALID,0.0,
2019-05-13, 08:43:06,VALID,918.614,VALID,0.0,VALID,79.705,VALID,464.883,VALID,24.0,INVALID,360.0,VALID,0.0,
2019-05-13, 08:44:06,VALID,918.626,VALID,0.0,VALID,79.661,VALID,454.911,VALID,23.986,INVALID,360.0,VALID,0.0,
2019-05-13, 08:45:06,VALID,918.643,VALID,0.0,VALID,79.328,VALID,427.492,VALID,23.998,INVALID,360.0,VALID,0.0,
2019-05-13, 08:46:06,VALID,918.625,VALID,0.0,VALID,79.727,VALID,437.157,VALID,24.019,INVALID,360.0,VALID,0.0,
2019-05-13, 08:47:06,VALID,918.634,VALID,0.0,VALID,79.684,VALID,444.423,VALID,24.126,INVALID,360.0,VALID,0.0,
2019-05-13, 08:48:06,VALID,918.623,VALID,0.0,VALID,79.094,VALID,458.305,VALID,24.14,INVALID,360.0,VALID,0.0,
2019-05-13, 08:49:06,VALID,918.627,VALID,0.0,VALID,79.265,VALID,466.102,VALID,23.906,INVALID,360.0,VALID,0.0,
2019-05-13, 08:50:06,VALID,918.644,VALID,0.0,VALID,80.985,VALID,479.231,VALID,23.647,INVALID,360.0,VALID,0.0,
2019-05-13, 08:51:06,VALID,918.666,VALID,0.0,VALID,81.85,VALID,432.237,VALID,23.794,INVALID,360.0,VALID,0.0,
2019-05-13, 08:52:06,VALID,918.677,VALID,0.0,VALID,79.964,VALID,356.504,VALID,23.877,INVALID,360.0,VALID,0.0,
2019-05-13, 08:53:06,VALID,918.681,VALID,0.0,VALID,79.875,VALID,297.928,VALID,23.692,INVALID,360.0,VALID,0.0,
2019-05-13, 08:54:06,VALID,918.689,VALID,0.0,VALID,81.358,VALID,292.185,VALID,23.556,INVALID,360.0,VALID,0.0,
2019-05-13, 08:55:06,VALID,918.682,VALID,0.0,VALID,81.077,VALID,276.08,VALID,23.569,INVALID,360.0,VALID,0.0,
2019-05-13, 08:56:06,VALID,918.671,VALID,0.0,VALID,80.47,VALID,281.796,VALID,23.483,INVALID,360.0,VALID,0.0,
2019-05-13, 08:57:06,VALID,918.67,VALID,0.0,VALID,81.801,VALID,282.44,VALID,23.523,INVALID,360.0,VALID,0.0,
2019-05-13, 08:58:06,VALID,918.669,VALID,0.0,VALID,82.671,VALID,253.253,VALID,23.616,INVALID,360.0,VALID,0.0,
2019-05-13, 08:59:06,VALID,918.673,VALID,0.0,VALID,82.076,VALID,239.821,VALID,23.806,INVALID,360.0,VALID,0.0,
2019-05-13, 09:00:06,VALID,918.699,VALID,0.0,VALID,80.398,VALID,215.442,VALID,23.969,INVALID,360.0,VALID,0.0,
2019-05-13, 09:01:06,VALID,918.71,VALID,0.0,VALID,79.397,VALID,205.685,VALID,24.018,INVALID,360.0,VALID,0.0,
2019-05-13, 09:02:06,VALID,918.707,VALID,0.0,VALID,78.83,VALID,226.087,VALID,24.103,INVALID,360.0,VALID,0.0,
2019-05-13, 09:03:06,VALID,918.712,VALID,0.0,VALID,77.7,VALID,285.652,VALID,24.132,INVALID,360.0,VALID,0.0,
2019-05-13, 09:04:06,VALID,918.691,VALID,0.0,VALID,78.136,VALID,357.747,VALID,24.278,INVALID,360.0,VALID,0.0,
2019-05-13, 09:05:07,VALID,918.655,VALID,0.0,VALID,77.074,VALID,381.917,VALID,24.579,INVALID,360.0,VALID,0.0,
2019-05-13, 09:06:07,VALID,918.617,VALID,0.0,VALID,75.647,VALID,371.608,VALID,24.584,INVALID,360.0,VALID,0.0,
2019-05-13, 09:07:07,VALID,918.579,VALID,0.0,VALID,76.443,VALID,387.83,VALID,24.377,INVALID,360.0,VALID,0.0,
2019-05-13, 09:08:07,VALID,918.558,VALID,0.0,VALID,76.97,VALID,390.76,VALID,24.321,INVALID,360.0,VALID,0.0,
2019-05-13, 09:09:07,VALID,918.556,VALID,0.0,VALID,77.916,VALID,376.006,VALID,24.274,INVALID,360.0,VALID,0.0,
2019-05-13, 09:10:07,VALID,918.571,VALID,0.0,VALID,78.15,VALID,364.232,VALID,24.134,INVALID,360.0,VALID,0.0,
2019-05-13, 09:11:07,VALID,918.595,VALID,0.0,VALID,78.808,VALID,389.633,VALID,23.941,INVALID,360.0,VALID,0.0,
2019-05-13, 09:12:07,VALID,918.608,VALID,0.0,VALID,80.268,VALID,445.656,VALID,23.838,INVALID,360.0,VALID,0.0,
2019-05-13, 09:13:07,VALID,918.63,VALID,0.0,VALID,79.368,VALID,500.828,VALID,23.848,INVALID,360.0,VALID,0.0,
2019-05-13, 09:14:07,VALID,918.636,VALID,0.0,VALID,79.039,VALID,533.068,VALID,23.832,INVALID,360.0,VALID,0.0,
2019-05-13, 09:15:07,VALID,918.63,VALID,0.0,VALID,79.212,VALID,548.966,VALID,23.906,INVALID,360.0,VALID,0.0,
2019-05-13, 09:16:07,VALID,918.624,VALID,0.0,VALID,78.482,VALID,583.474,VALID,24.087,INVALID,360.0,VALID,0.0,
2019-05-13, 09:17:07,VALID,918.594,VALID,0.0,VALID,76.104,VALID,592.679,VALID,24.31,INVALID,360.0,VALID,0.0,
2019-05-13, 09:18:07,VALID,918.574,VALID,0.0,VALID,75.903,VALID,628.445,VALID,24.268,INVALID,360.0,VALID,0.0,
2019-05-13, 09:19:07,VALID,918.565,VALID,0.0,VALID,76.196,VALID,634.98,VALID,24.255,INVALID,360.0,VALID,0.0,
2019-05-13, 09:20:07,VALID,918.557,VALID,0.0,VALID,76.807,VALID,613.017,VALID,24.392,INVALID,360.0,VALID,0.0,
2019-05-13, 09:21:07,VALID,918.576,VALID,0.0,VALID,75.23,VALID,664.506,VALID,24.757,INVALID,360.0,VALID,0.0,
2019-05-13, 09:22:07,VALID,918.582,VALID,0.0,VALID,73.92,VALID,674.726,VALID,24.982,INVALID,360.0,VALID,0.0,
2019-05-13, 09:23:07,VALID,918.608,VALID,0.0,VALID,75.018,VALID,683.087,VALID,25.002,INVALID,360.0,VALID,0.0,
2019-05-13, 09:24:07,VALID,918.65,VALID,0.0,VALID,74.499,VALID,685.96,VALID,25.253,INVALID,360.0,VALID,0.0,
2019-05-13, 09:25:07,VALID,918.681,VALID,0.0,VALID,72.971,VALID,676.577,VALID,25.603,INVALID,360.0,VALID,0.0,
2019-05-13, 09:26:07,VALID,918.696,VALID,0.0,VALID,72.84,VALID,669.621,VALID,25.606,INVALID,360.0,VALID,0.0,
2019-05-13, 09:27:07,VALID,918.71,VALID,0.0,VALID,73.902,VALID,697.507,VALID,25.325,INVALID,360.0,VALID,0.0,
2019-05-13, 09:28:07,VALID,918.722,VALID,0.0,VALID,75.355,VALID,704.074,VALID,25.182,INVALID,360.0,VALID,0.0,
2019-05-13, 09:29:07,VALID,918.717,VALID,0.0,VALID,75.999,VALID,682.612,VALID,25.224,INVALID,360.0,VALID,0.0,
2019-05-13, 09:30:07,VALID,918.719,VALID,0.0,VALID,76.089,VALID,702.206,VALID,25.445,INVALID,360.0,VALID,0.0,
2019-05-13, 09:31:07,VALID,918.703,VALID,0.0,VALID,74.346,VALID,664.407,VALID,25.833,INVALID,360.0,VALID,0.0,
2019-05-13, 09:32:07,VALID,918.704,VALID,0.0,VALID,73.318,VALID,518.247,VALID,25.838,INVALID,360.0,VALID,0.0,
2019-05-13, 09:33:07,VALID,918.685,VALID,0.0,VALID,72.986,VALID,470.8,VALID,25.489,INVALID,360.0,VALID,0.0,
2019-05-13, 09:34:07,VALID,918.689,VALID,0.0,VALID,75.105,VALID,477.582,VALID,25.088,INVALID,360.0,VALID,0.0,
2019-05-13, 09:35:07,VALID,918.697,VALID,0.0,VALID,75.947,VALID,581.138,VALID,25.174,INVALID,360.0,VALID,0.0,
2019-05-13, 09:36:07,VALID,918.713,VALID,0.0,VALID,75.812,VALID,510.217,VALID,25.435,INVALID,360.0,VALID,0.0,
2019-05-13, 09:37:07,VALID,918.734,VALID,0.0,VALID,75.382,VALID,660.004,VALID,25.748,INVALID,360.0,VALID,0.0,
2019-05-13, 09:38:07,VALID,918.736,VALID,0.0,VALID,73.66,VALID,747.302,VALID,25.921,INVALID,360.0,VALID,0.0,
2019-05-13, 09:39:07,VALID,918.765,VALID,0.0,VALID,73.381,VALID,742.702,VALID,25.928,INVALID,360.0,VALID,0.0,
2019-05-13, 09:40:07,VALID,918.763,VALID,0.0,VALID,74.575,VALID,602.469,VALID,25.84,INVALID,360.0,VALID,0.0,
2019-05-13, 09:41:07,VALID,918.778,VALID,0.0,VALID,73.133,VALID,376.196,VALID,25.847,INVALID,360.0,VALID,0.0,
2019-05-13, 09:42:07,VALID,918.771,VALID,0.0,VALID,72.028,VALID,418.222,VALID,25.81,INVALID,360.0,VALID,0.0,
2019-05-13, 09:43:07,VALID,918.758,VALID,0.0,VALID,69.872,VALID,470.493,VALID,25.56,INVALID,360.0,VALID,0.0,
2019-05-13, 09:44:07,VALID,918.735,VALID,0.0,VALID,70.3,VALID,498.178,VALID,25.361,INVALID,360.0,VALID,0.0,
2019-05-13, 09:45:07,VALID,918.724,VALID,0.0,VALID,73.291,VALID,311.092,VALID,25.309,INVALID,360.0,VALID,0.0,
2019-05-13, 09:46:07,VALID,918.716,VALID,0.0,VALID,73.14,VALID,262.31,VALID,25.074,INVALID,360.0,VALID,0.0,
2019-05-13, 09:47:07,VALID,918.691,VALID,0.0,VALID,74.355,VALID,391.697,VALID,24.879,INVALID,360.0,VALID,0.0,
2019-05-13, 09:48:07,VALID,918.67,VALID,0.0,VALID,74.822,VALID,431.12,VALID,24.9,INVALID,360.0,VALID,0.0,
2019-05-13, 09:49:07,VALID,918.667,VALID,0.0,VALID,75.04,VALID,368.491,VALID,24.916,INVALID,360.0,VALID,0.0,
2019-05-13, 09:50:07,VALID,918.663,VALID,0.0,VALID,73.913,VALID,252.227,VALID,24.884,INVALID,360.0,VALID,0.0,
2019-05-13, 09:51:07,VALID,918.655,VALID,0.0,VALID,73.734,VALID,265.807,VALID,24.852,INVALID,360.0,VALID,0.0,
2019-05-13, 09:52:07,VALID,918.654,VALID,0.0,VALID,71.967,VALID,536.466,VALID,24.971,INVALID,360.0,VALID,0.0,
2019-05-13, 09:53:07,VALID,918.65,VALID,0.0,VALID,69.56,VALID,730.894,VALID,25.131,INVALID,360.0,VALID,0.0,
2019-05-13, 09:54:07,VALID,918.632,VALID,0.0,VALID,71.555,VALID,733.231,VALID,25.465,INVALID,360.0,VALID,0.0,
2019-05-13, 09:55:07,VALID,918.635,VALID,0.0,VALID,71.246,VALID,724.195,VALID,25.728,INVALID,360.0,VALID,0.0,
2019-05-13, 09:56:07,VALID,918.636,VALID,0.0,VALID,70.392,VALID,714.454,VALID,25.968,INVALID,360.0,VALID,0.0,
2019-05-13, 09:57:07,VALID,918.645,VALID,0.0,VALID,67.856,VALID,674.722,VALID,26.105,INVALID,360.0,VALID,0.0,
2019-05-13, 09:58:07,VALID,918.645,VALID,0.0,VALID,69.527,VALID,653.946,VALID,26.227,INVALID,360.0,VALID,0.0,
2019-05-13, 09:59:07,VALID,918.671,VALID,0.0,VALID,68.157,VALID,697.723,VALID,26.187,INVALID,360.0,VALID,0.0,
2019-05-13, 10:00:07,VALID,918.663,VALID,0.0,VALID,68.189,VALID,715.787,VALID,25.993,INVALID,360.0,VALID,0.0,
2019-05-13, 10:01:07,VALID,918.663,VALID,0.0,VALID,65.693,VALID,712.829,VALID,25.904,INVALID,360.0,VALID,0.0,
2019-05-13, 10:02:07,VALID,918.637,VALID,0.0,VALID,64.652,VALID,705.488,VALID,25.997,INVALID,360.0,VALID,0.0,
2019-05-13, 10:03:07,VALID,918.623,VALID,0.0,VALID,64.459,VALID,715.189,VALID,26.318,INVALID,360.0,VALID,0.0,
2019-05-13, 10:04:07,VALID,918.606,VALID,0.0,VALID,64.841,VALID,726.796,VALID,26.409,INVALID,360.0,VALID,0.0,
2019-05-13, 10:05:07,VALID,918.606,VALID,0.0,VALID,64.663,VALID,735.708,VALID,26.684,INVALID,360.0,VALID,0.0,
2019-05-13, 10:06:07,VALID,918.6,VALID,0.0,VALID,64.233,VALID,744.644,VALID,27.127,INVALID,360.0,VALID,0.0,
2019-05-13, 10:07:07,VALID,918.594,VALID,0.0,VALID,64.506,VALID,754.341,VALID,27.416,INVALID,360.0,VALID,0.0,
2019-05-13, 10:08:07,VALID,918.565,VALID,0.0,VALID,64.677,VALID,771.633,VALID,27.243,INVALID,360.0,VALID,0.0,
2019-05-13, 10:09:07,VALID,918.567,VALID,0.0,VALID,65.578,VALID,701.504,VALID,26.689,INVALID,360.0,VALID,0.0,
2019-05-13, 10:10:07,VALID,918.556,VALID,0.0,VALID,65.516,VALID,758.793,VALID,26.34,INVALID,360.0,VALID,0.0,
2019-05-13, 10:11:07,VALID,918.531,VALID,0.0,VALID,68.056,VALID,762.567,VALID,26.151,INVALID,360.0,VALID,0.0,
2019-05-13, 10:12:07,VALID,918.507,VALID,0.0,VALID,68.402,VALID,604.147,VALID,26.35,INVALID,360.0,VALID,0.0,
2019-05-13, 10:13:07,VALID,918.479,VALID,0.0,VALID,67.965,VALID,708.236,VALID,26.475,INVALID,360.0,VALID,0.0,
2019-05-13, 10:14:07,VALID,918.475,VALID,0.0,VALID,68.057,VALID,735.393,VALID,26.602,INVALID,360.0,VALID,0.0,
2019-05-13, 10:15:07,VALID,918.457,VALID,0.0,VALID,67.732,VALID,737.176,VALID,26.832,INVALID,360.0,VALID,0.0,
2019-05-13, 10:16:07,VALID,918.455,VALID,0.0,VALID,67.694,VALID,740.989,VALID,27.114,INVALID,360.0,VALID,0.0,
2019-05-13, 10:17:07,VALID,918.452,VALID,0.0,VALID,66.098,VALID,743.127,VALID,27.229,INVALID,360.0,VALID,0.0,
2019-05-13, 10:18:07,VALID,918.44,VALID,0.0,VALID,67.007,VALID,744.669,VALID,27.291,INVALID,360.0,VALID,0.0,
2019-05-13, 10:19:07,VALID,918.413,VALID,0.0,VALID,65.962,VALID,747.048,VALID,27.513,INVALID,360.0,VALID,0.0,
2019-05-13, 10:20:07,VALID,918.415,VALID,0.0,VALID,64.009,VALID,749.201,VALID,27.628,INVALID,360.0,VALID,0.0,
2019-05-13, 10:21:07,VALID,918.388,VALID,0.0,VALID,63.49,VALID,745.185,VALID,27.447,INVALID,360.0,VALID,0.0,
2019-05-13, 10:22:07,VALID,918.359,VALID,0.0,VALID,64.044,VALID,741.581,VALID,27.218,INVALID,360.0,VALID,0.0,
2019-05-13, 10:23:07,VALID,918.329,VALID,0.0,VALID,64.906,VALID,742.029,VALID,26.891,INVALID,360.0,VALID,0.0,
2019-05-13, 10:24:07,VALID,918.31,VALID,0.0,VALID,66.025,VALID,742.985,VALID,26.602,INVALID,360.0,VALID,0.0,
2019-05-13, 10:25:07,VALID,918.297,VALID,0.0,VALID,66.55,VALID,749.57,VALID,26.585,INVALID,360.0,VALID,0.0,
2019-05-13, 10:26:07,VALID,918.295,VALID,0.0,VALID,67.06,VALID,760.651,VALID,26.873,INVALID,360.0,VALID,0.0,
2019-05-13, 10:27:07,VALID,918.312,VALID,0.0,VALID,65.447,VALID,773.588,VALID,27.372,INVALID,360.0,VALID,0.0,
2019-05-13, 10:28:07,VALID,918.322,VALID,0.0,VALID,64.639,VALID,786.704,VALID,27.664,INVALID,360.0,VALID,0.0,
2019-05-13, 10:29:07,VALID,918.317,VALID,0.0,VALID,63.614,VALID,771.443,VALID,27.807,INVALID,360.0,VALID,0.0,
2019-05-13, 10:30:07,VALID,918.324,VALID,0.0,VALID,62.899,VALID,411.09,VALID,27.698,INVALID,360.0,VALID,0.0,
2019-05-13, 10:31:07,VALID,918.337,VALID,0.0,VALID,63.377,VALID,729.967,VALID,27.408,INVALID,360.0,VALID,0.0,
2019-05-13, 10:32:07,VALID,918.305,VALID,0.0,VALID,63.575,VALID,786.436,VALID,27.536,INVALID,360.0,VALID,0.0,
2019-05-13, 10:33:07,VALID,918.302,VALID,0.0,VALID,63.875,VALID,789.415,VALID,28.002,INVALID,360.0,VALID,0.0,
2019-05-13, 10:34:07,VALID,918.312,VALID,0.0,VALID,61.66,VALID,545.822,VALID,28.25,INVALID,360.0,VALID,0.0,
2019-05-13, 10:35:07,VALID,918.305,VALID,0.0,VALID,62.542,VALID,290.855,VALID,27.759,INVALID,360.0,VALID,0.0,